Location: Ostrava
(49.8330°N, 18.2830°E)
Time: 01:29:09
(UTC+02:00)

Cosmos 2221 - Visible Passes

Search period start: 17 September 2014 00:00
Search period end: 27 September 2014 00:00
Orbit: 597 x 623 km, 82.5° (Epoch: 15 September)

Date Brightness Start Highest point End Pass type
(mag) Time Alt. Az. Time Alt. Az. Time Alt. Az.
17 Sep 3.8 19:28:51 10° SE 19:31:56 20° E 19:35:02 10° NE visible
17 Sep 3.5 21:05:09 10° SSW 21:09:18 47° WNW 21:13:27 10° N visible
18 Sep 3.2 19:42:34 10° SSE 19:46:21 31° E 19:50:09 10° NNE visible
18 Sep 4.5 21:20:17 10° SW 21:24:02 29° WNW 21:27:49 10° N visible
19 Sep 5.8 05:46:03 10° NNE 05:48:22 14° ENE 05:50:41 10° E visible
19 Sep 2.6 19:56:41 10° S 20:00:51 51° E 20:05:01 10° NNE visible
19 Sep 5.2 21:35:47 10° WSW 21:38:52 19° WNW 21:41:57 10° NNW visible
20 Sep 2.4 20:11:07 10° S 20:15:24 86° E 20:19:43 10° N visible
20 Sep 5.7 21:51:58 10° W 21:53:46 12° WNW 21:55:33 10° NW visible
21 Sep 3.2 20:25:49 10° SSW 20:30:02 57° WNW 20:34:17 10° N visible
22 Sep 4.2 20:40:49 10° SW 20:44:45 34° WNW 20:48:41 10° N visible
23 Sep 6.0 05:07:19 10° NE 05:09:01 12° ENE 05:10:42 10° E visible
23 Sep 2.9 19:17:36 10° SSE 19:21:38 42° E 19:25:42 10° NNE visible
23 Sep 5.1 20:56:09 10° WSW 20:59:32 22° WNW 21:02:55 10° NNW visible
24 Sep 5.6 05:20:52 10° NNE 05:23:55 19° ENE 05:26:58 10° ESE visible
24 Sep 2.4 19:31:54 10° S 19:36:10 71° E 19:40:27 10° NNE visible
24 Sep 5.7 21:12:00 10° W 21:14:23 15° WNW 21:16:48 10° NNW visible
25 Sep 4.9 05:34:58 10° N 05:38:44 28° ENE 05:42:29 10° SE visible
25 Sep 2.8 19:46:30 10° SSW 19:50:45 69° WNW 19:55:03 10° N visible
26 Sep 3.9 05:49:18 10° N 05:53:28 45° ENE 05:57:38 10° SSE visible
26 Sep 3.9 20:01:22 10° SW 20:05:26 41° WNW 20:09:31 10° N visible
